Regional Weather Roundup
Issued by NWS

Home | Current Version | Previous Version | Graphics & Text | Print | Product List | Glossary On
Versions: 1 2 3 4 5 6 7 8 9 10 11 12 13 14 15 16 17 18 19 20 21 22 23 24 25 26 27
000
ASUS45 KBOU 230907
RWRCO

WEATHER ROUNDUP FOR COLORADO
NATIONAL WEATHER SERVICE DENVER/BOULDER CO
300 AM MDT FRI JUN 23 2017

NOTE: "FAIR" INDICATES FEW OR NO CLOUDS BELOW 12000 FEET WITH NO
SIGNIFICANT WEATHER AND/OR OBSTRUCTIONS TO VISIBILITY.

COZ001>005-013-030-031-231000-
...NORTHWEST COLORADO...

CITY           SKY/WX    TMP DP  RH WIND       PRES   REMARKS
CRAIG          FAIR      52  36  54 S8        30.17R
HAYDEN         FAIR      54  27  35 SW7       30.18R
MEEKER         FAIR      50  44  80 MISG      30.19R
RABBIT EARS PA FAIR      43  27  52 W8        30.40R
STEAMBOAT SPGS FAIR      52  35  52 S8        30.18R
WALDEN         FAIR      45  36  70 N5        30.27S
$$

COZ006>008-011-231000-
...WEST CENTRAL VALLEYS...

CITY           SKY/WX    TMP DP  RH WIND       PRES   REMARKS
GRAND JUNCTION FAIR      74  30  19 N7        30.01R
MONTROSE       FAIR      61  36  39 SE8       30.07R
EAGLE          FAIR      54  38  54 S5        30.19R
RIFLE          FAIR      56  38  50 CALM      30.09R
DELTA          FAIR      68  37  31 N6        30.02R
NUCLA          FAIR      63  32  31 SE10      30.11S
$$

COZ017>023-064>068-231000-
...SOUTHWEST COLORADO...

CITY           SKY/WX    TMP DP  RH WIND       PRES   REMARKS
DURANGO        FAIR      51  28  41 CALM      30.09R
CORTEZ         FAIR      57  36  45 E7        30.06S
PAGOSA SPRINGS FAIR      55  29  37 CALM      30.17R
TELLURIDE      FAIR      57  31  36 CALM      30.33S
WOLF CREEK PAS MOCLDY    52  25  35 W5        30.56R
$$

COZ009-010-012-014-032>034-037-058>063-231000-
...CENTRAL COLORADO...

CITY           SKY/WX    TMP DP  RH WIND       PRES   REMARKS
ASPEN          FAIR      51  36  56 S6        30.21F
BUENA VISTA    FAIR      55  34  45 NW12      30.24S
COPPER MTN     FAIR      50  25  37 NW10      30.50S
BERTHOUD PASS  FAIR      37  28  70 NW21      30.52S
COTTONWOOD PAS FAIR      59  32  36 SW8       30.37S
GUNNISON       FAIR      47  37  68 CALM      30.22R
KREMMLING      NOT AVBL
LEADVILLE      FAIR      39  31  72 CALM      30.35F
MONARCH PASS   FAIR      46  39  76 CALM      30.61S
SALIDA         FAIR      58  41  52 W6        30.28R
SUNLIGHT       FAIR      46  25  42 W7        30.45S
WILKERSON PASS FAIR      46  37  71 SW8       30.48F
$$

COZ069>075-231000-
...SAN LUIS VALLEY/SANGRE DE CRISTO MOUNTAINS...

CITY           SKY/WX    TMP DP  RH WIND       PRES   REMARKS
ALAMOSA        FAIR      52  45  77 S5        30.15S
DEL NORTE      FAIR      57  29  34 W13       30.19S
LA VETA PASS   FAIR      54  37  54 N6        30.47F
SAGUACHE       FAIR      54  28  37 N8        30.19S
$$

COZ035-036-038>040-231000-
...NORTHERN COLORADO FRONT RANGE...

CITY           SKY/WX    TMP DP  RH WIND       PRES   REMARKS
DENVER INTL AP MOCLDY    59  53  80 E6        30.12R
DMNS CITY PARK   N/A     60  53  77 NE15      30.12R
AURORA         MOCLDY    55  54  94 E7        30.13R
FRONT RANGE AP FAIR      59  55  88 E9        30.13R
ERIE MUNI ARPT CLOUDY    65  54  68 N8        30.13R
BOULDER MUN AP CLOUDY    64  54  68 N8        30.14R
CENTENNIAL     FAIR      60  55  83 NW6       30.13R
BROOMFIELD     FAIR      63  54  72 N8        30.15R
FORT COLLINS   CLOUDY    65  54  67 NE12      30.15R
LONGMONT       CLOUDY    67  56  67 NE3       30.15R
$$

COZ041-046-047-076>085-087-088-231000-
...PIKES PEAK/PALMER DIVIDE AND SOUTHERN FOOTHILLS...

CITY           SKY/WX    TMP DP  RH WIND       PRES   REMARKS
COLO. SPRINGS  FAIR      60  55  83 E10       30.14R
A. F. ACADEMY  FAIR      57  49  73 N5        30.16R
SCHRIEVER AFB  NOT AVBL
CHEYENNE MTN   NOT AVBL
ELLICOTT       FAIR     N/A N/A N/A E18       30.12S
FALCON           N/A     54  53  95 NW5       30.19F
FORT CARSON    FAIR      57  51  79 NW7       30.11R
LIMON          CLOUDY    60  55  83 E7        30.10S
MONUMENT HILL  CLOUDY    55  52  88 W3        30.21R
CANON CITY     CLEAR     63  55  77 SW5       30.06R
WALSENBURG     FAIR      54  46  76 W7        30.08F
TRINIDAD       FAIR      63  47  55 W7        30.07F
$$

COZ042>045-048>051-090-091-231000-
...NORTHEAST COLORADO...

CITY           SKY/WX    TMP DP  RH WIND       PRES   REMARKS
GREELEY ARPT   MOCLDY    63  55  77 NE9G18    30.15R
AKRON          CLOUDY    59  49  69 E12       30.12R
BURLINGTON     FAIR      60  52  74 NE8       30.01F
WRAY           CLOUDY    57  52  82 E13       30.05R
YUMA           RAIN      55  50  82 NE9       30.09R
STERLING       CLOUDY    55  54  94 NE7       30.09F
HOLYOKE        NOT AVBL
FORT MORGAN    LGT RAIN  54  51  89 NE14G22   30.15R
$$

COZ086-089-092>099-231000-
...SOUTHEAST COLORADO...

CITY           SKY/WX    TMP DP  RH WIND       PRES   REMARKS
PUEBLO         FAIR      65  55  70 NE6       30.01S
LA JUNTA       FAIR      65  57  75 NE5       30.01R
LAMAR          FAIR      65  60  84 NE7       29.94F
SPRINGFIELD      N/A     61  59  93 NE5       29.98R
$$




USA.gov is the U.S. government's official web portal to all federal, state and local government web resources and services.